AirNav   Pilot Hours Calculator
 
 423 users online  

KAMT Alexander Salamon Airport
West Union, Ohio, USA

GOING TO WEST UNION?


FAA INFORMATION EFFECTIVE 26 MARCH 2020

Location

FAA Identifier: AMT
Lat/Long: 38-51-06.0210N 083-33-57.6260W
38-51.100350N 083-33.960433W
38.8516725,-83.5660072
(estimated)
Elevation: 896 ft. / 273.1 m (surveyed)
Variation: 04W (1985)
From city: 4 miles NW of WEST UNION, OH
Time zone: UTC -4 (UTC -5 during Standard Time)
Zip code: 45693

Airport Operations

Airport use: Open to the public
Activation date: 03/1972
Control tower: no
ARTCC: INDIANAPOLIS CENTER
FSS: DAYTON FLIGHT SERVICE STATION
NOTAMs facility: DAY (NOTAM-D service available)
Attendance: UNATTND
Wind indicator: lighted
Segmented circle: no
Lights: ACTVT REILS RWYS 05/23; PAPI RWY 23; MIRL RWY 05/23 - CTAF.
Beacon: white-green (lighted land airport)
Operates sunset to sunrise.

Airport Communications

CTAF/UNICOM: 122.8
  • APCH/DEP SVC PRVDD BY INDIANAPOLIS ARTCC ON FREQS 135.575/290.5 (PORTSMOUTH RCAG).

Nearby radio navigation aids

VOR radial/distance  VOR name  Freq  Var
YRKr299/30.2YORK VORTAC112.8005W
MXQr166/36.4MIDWEST VOR/DME112.9004W
FLMr075/36.9FALMOUTH VOR/DME117.0004W

 
NDB name  Hdg/Dist  Freq  Var  ID
WEST UNIONat field35904WAMT .- -- -
SPORTYS118/33.224504WPWF .--. .-- ..-.
WAVERLY243/35.138506WEOP . --- .--.

Airport Services

Parking: tiedowns

Runway Information

Runway 5/23

Dimensions: 3558 x 65 ft. / 1084 x 20 m
Surface: asphalt, in good condition
Runway edge lights: medium intensity
RUNWAY 5  RUNWAY 23
Latitude: 38-50.893600N38-51.307073N
Longitude: 083-34.226117W083-33.694735W
Elevation: 882.9 ft.896.0 ft.
Traffic pattern: leftleft
Runway heading: 049 magnetic, 045 true229 magnetic, 225 true
Markings: nonprecision, in good conditionnonprecision, in good condition
Visual slope indicator: 4-light PAPI on left (3.30 degrees glide path)
Runway end identifier lights: yesyes
Touchdown point: yes, no lightsyes, no lights
Obstructions: 10 ft. brush, 201 ft. from runway, 170 ft. right of centerline
RWY 05 +4 FT FENCE 0 FT TO 200 FT FM, 195 FT B, +0-TO-10 FT BRUSH, 0 FT TO 200 FT FM, 125 FT R.
10 ft. brush, 201 ft. from runway, 200 ft. left of centerline
RWY 23 +5 FT FENCE 0 FT TO 200 FT FM, 200 FT L, +0-TO-10 FT BRUSH 0 FT TO 200 FT FM, 200 FT L.

Airport Ownership and Management from official FAA records

Ownership: Publicly-owned
Owner: ADAMS CO ARPT AUTH
ADAMS CO. COURT HOUSE
WEST UNION, OH 45693
Phone 937-544-3286
Manager: JASON GROOMS
3399 CROSS ROAD
WINCHESTER, OH 45697
Phone (513) 550-2919
ADDNL CTC: AMT_APT_MGR@ADAMSCOUNTYOH.GOV (937) 544-3286

Airport Operational Statistics

Aircraft based on the field: 15
Single engine airplanes: 14
Ultralights: 1
    
Aircraft operations: avg 100/week *
58% local general aviation
38% transient general aviation
4% air taxi
<1% military
* for 12-month period ending 18 June 2018

Additional Remarks

A30A-23 ADNL OBST, +65 TREES 1450 FT FM 180L 19:1.
TWY MKD W/REFLECTORS
DEER, BIRDS & OTHER WILDLIFE ON & IVOF ARPT.
FOR CD CTC INDIANAPOLIS ARTCC AT 317-247-2411.

Instrument Procedures

NOTE: All procedures below are presented as PDF files. If you need a reader for these files, you should download the free Adobe Reader.

NOT FOR NAVIGATION. Please procure official charts for flight.
FAA instrument procedures published for use from 26 March 2020 at 0901Z to 23 April 2020 at 0900Z.

 
IAPs - Instrument Approach Procedures
RNAV (GPS) RWY 05   download (166KB)
RNAV (GPS) RWY 23   download (170KB)
NOTE: Special Take-Off Minimums/Departure Procedures apply   download (164KB)

Other nearby airports with instrument procedures:

KGEO - Brown County Airport (15 nm W)
KHOC - Highland County Airport (20 nm N)
KFGX - Fleming-Mason Airport (20 nm SW)
I69 - Clermont County Airport (33 nm NW)
KPMH - Greater Portsmouth Regional Airport (34 nm E)
 
Loc | Ops | Rwys | IFR | FBO | Links
Com | Nav | Svcs | Stats | Notes
Area around KAMT (Alexander Salamon Airport)
 
Road maps at: MapQuest Bing Google
 
Aerial photo
WARNING: Photo may not be current or correct
Aerial photo of KAMT (Alexander Salamon Airport)
Photo by David Dietz
Photo taken 09-Jul-2009
looking northeast.

Do you have a better or more recent aerial photo of Alexander Salamon Airport that you would like to share? If so, please send us your photo.

 
Sectional chart

 
Airport distance calculator
Flying to Alexander Salamon Airport? Find the distance to fly.

From to KAMT

Sunrise and sunset
Times for 08-Apr-2020
 Local
(UTC-4)
 Zulu
(UTC)
Morning civil twilight06:4110:41
Sunrise07:0811:08
Sunset20:0400:04
Evening civil twilight20:3100:31

Current date and time
Zulu (UTC)  08-Apr-2020 10:52:55
Local (UTC-4)  08-Apr-2020 06:52:55
 
METAR
KFGX 
20nm SW 
081035Z AUTO 26012G18KT 10SM BKN023 BKN031 BKN050 18/16 A2973 RMK AO2 T01820163
KI69 
33nm NW 
081036Z AUTO 26006KT 10SM BKN023 OVC033 20/17 A2970 RMK AO2 T02040170
KPMH 
34nm E 
081035Z AUTO 25003KT 10SM SCT027 BKN034 OVC049 20/16 A2969 RMK AO2 LTG DSNT NE AND E T02020158
KILN 
37nm N 
081029Z AUTO 27010KT 10SM -RA BKN026 BKN033 OVC042 19/16 A2968 RMK AO2 P0000 T01940161
KSYM 
38nm S 
081035Z AUTO 25009G21KT 220V300 10SM BKN019 OVC025 19/15 A2976 RMK AO2
TAF
KILN 
37nm N 
080900Z 0809/0906 25011KT P6SM VCTS BKN028CB BKN035 OVC040 FM081300 28008KT P6SM BKN035 FM081500 30009KT P6SM SCT050 FM082300 25010KT P6SM VCSH BKN050 FM090300 23012KT P6SM -SHRA VCTS BKN035CB
KSYM 
38nm S 
080639Z 0807/0906 24009G18KT P6SM BKN025 FM080900 24006KT P6SM VCTS OVC015CB FM081600 31009KT P6SM SCT060
KLUK 
42nm W 
080900Z 0809/0906 24011KT P6SM OVC035 FM081400 25007KT P6SM VCSH BKN050 FM090100 25008KT P6SM -SHRA VCTS BKN040CB
NOTAMs
Click for the latest NOTAMs
NOTAMs are issued by the DoD/FAA and will open in a separate window not controlled by AirNav.

 

 
 

Would you like to see your business listed on this page?

 If your business provides an interesting product or service to pilots, flight crews, aircraft, or users of the Alexander Salamon Airport, you should consider listing it here.  To start the listing process, click on the button below
 
Add a business
 

Other Pages about Alexander Salamon Airport

www.adamscountyoh.com/airport.asp
 
Update a link
 
Copyright © AirNav, LLC. All rights reserved. Privacy Policy  Contact